LKNA Weather Reports


time (UTC)temp
C
wind
direction
speed
KPH
gust
KPH
rain 1hr
cm
rain 24hr
cm
rain mn
cm
humidity
%
barometer
mb
20260507033110 12 230 11.3 0.0 0.00 0.00 0.00 87 1009.0
20260507032034 11 230 11.3 0.0 0.00 0.00 0.00 93
20260507030105 11 240 11.3 0.0 0.00 0.00 0.00 93 1009.0
20260507023110 11 220 12.9 0.0 0.00 0.00 0.00 93 1009.0
20260507022032 11 220 11.3 0.0 0.00 0.00 0.00 93
20260507020105 11 210 11.3 0.0 0.00 0.00 0.00 93 1008.0
20260507013109 12 230 11.3 0.0 0.00 0.00 0.00 87 1008.0
20260507012132 12 230 11.3 0.0 0.00 0.00 0.00 81
20260507010105 12 230 11.3 0.0 0.00 0.00 0.00 87 1008.0
20260507003109 12 250 11.3 0.0 0.00 0.00 0.00 82 1007.0
20260507002033 12 250 11.3 0.0 0.00 0.00 0.00 81
20260507000241 12 250 11.3 0.0 0.00 0.00 0.00 82 1007.0
20260506233110 13 250 19.3 0.0 0.00 0.00 0.00 76 1007.0
20260506232033 12 280 19.3 0.0 0.00 0.00 0.00 82
20260506230106 12 280 19.3 0.0 0.00 0.00 0.00 82 1006.0
20260506223111 15 270 19.3 0.0 0.00 0.00 0.00 72 1006.0
20260506222306 15 240 14.5 0.0 0.00 0.00 0.00 72
20260506220105 15 240 12.9 0.0 0.00 0.00 0.00 72 1005.0
20260506213110 16 170 14.5 0.0 0.00 0.00 0.00 63 1005.0
20260506212055 16 130 19.3 0.0 0.00 0.00 0.00 63
20260506210113 16 120 16.1 0.0 0.00 0.00 0.00 63 1005.0
20260506203109 17 110 12.9 0.0 0.00 0.00 0.00 63 1005.0
20260506202106 17 120 11.3 0.0 0.00 0.00 0.00 63
20260506200106 17 110 11.3 0.0 0.00 0.00 0.00 63 1004.0
20260506193110 17 120 22.5 0.0 0.00 0.00 0.00 55 1004.0
20260506192225 17 130 19.3 0.0 0.00 0.00 0.00 55
20260506190105 17 130 19.3 0.0 0.00 0.00 0.00 55 1004.0
20260506183117 18 130 19.3 0.0 0.00 0.00 0.00 52 1004.0
20260506182122 18 130 25.7 0.0 0.00 0.00 0.00 52
20260506180254 20 130 22.5 0.0 0.00 0.00 0.00 49 1004.0
20260506173109 20 130 22.5 0.0 0.00 0.00 0.00 49 1004.0
20260506172047 21 120 25.7 0.0 0.00 0.00 0.00 46
20260506170241 21 120 25.7 0.0 0.00 0.00 0.00 46 1004.0
20260506163605 21 130 24.1 0.0 0.00 0.00 0.00 46 1004.0
20260506162307 21 130 25.7 0.0 0.00 0.00 0.00 43
20260506160105 22 140 24.1 0.0 0.00 0.00 0.00 40 1005.0
20260506153110 22 130 25.7 0.0 0.00 0.00 0.00 40 1005.0
20260506152121 22 120 25.7 0.0 0.00 0.00 0.00 43
20260506150113 22 120 25.7 0.0 0.00 0.00 0.00 43 1005.0
20260506143109 21 120 24.1 0.0 0.00 0.00 0.00 46 1006.0
20260506142048 22 140 29.0 0.0 0.00 0.00 0.00 46
20260506140105 22 140 25.7 0.0 0.00 0.00 0.00 43 1006.0
20260506133109 21 130 29.0 0.0 0.00 0.00 0.00 46 1006.0
20260506132048 21 130 25.7 0.0 0.00 0.00 0.00 46
20260506130113 21 120 24.1 0.0 0.00 0.00 0.00 46 1007.0
20260506123110 21 150 16.1 0.0 0.00 0.00 0.00 43 1007.0
20260506122048 21 160 19.3 0.0 0.00 0.00 0.00 46
20260506120246 21 150 16.1 0.0 0.00 0.00 0.00 43 1007.0
20260506112034 21 150 19.3 0.0 0.00 0.00 0.00 40
20260506110113 21 160 14.5 0.0 0.00 0.00 0.00 40 1007.0
20260506103110 21 160 16.1 0.0 0.00 0.00 0.00 40 1008.0
20260506102234 20 180 11.3 0.0 0.00 0.00 0.00 49
20260506100112 21 180 14.5 0.0 0.00 0.00 0.00 46 1008.0
20260506093110 20 170 12.9 0.0 0.00 0.00 0.00 49 1008.0
20260506092028 18 160 14.5 0.0 0.00 0.00 0.00 55
20260506090241 17 160 16.1 0.0 0.00 0.00 0.00 59 1008.0
20260506083110 17 170 16.1 0.0 0.00 0.00 0.00 59 1008.0
20260506082033 17 230 11.3 0.0 0.00 0.00 0.00 63
20260506080104 17 220 11.3 0.0 0.00 0.00 0.00 59 1008.0
20260506073110 17 210 11.3 0.0 0.00 0.00 0.00 63 1008.0
20260506072035 17 200 11.3 0.0 0.00 0.00 0.00 63
20260506070247 16 200 9.7 0.0 0.00 0.00 0.00 67 1008.0
20260506062108 13 220 8.0 0.0 0.00 0.00 0.00 82
20260506060112 13 230 9.7 0.0 0.00 0.00 0.00 82 1008.0
20260506050105 12 210 9.7 0.0 0.00 0.00 0.00 93 1008.0
20260506043110 12 210 9.7 0.0 0.00 0.00 0.00 93 1007.0
20260506042247 11 180 8.0 0.0 0.00 0.00 0.00 93
20260506040242 11 180 8.0 0.0 0.00 0.00 0.00 93 1007.0